TimeCDT,TemperatureF,Dew PointF,Humidity,Sea Level PressureIn,VisibilityMPH,Wind Direction,Wind SpeedMPH,Gust SpeedMPH,PrecipitationIn,Events,Conditions,WindDirDegrees,DateUTC
12:35 AM,55.4,55.4,100,30.25,2.5,ESE,6.9,-,N/A,,Overcast,110,2012-10-13 05:35:00
12:55 AM,55.4,55.4,100,30.25,3.0,ESE,4.6,-,N/A,,Overcast,110,2012-10-13 05:55:00
1:15 AM,55.4,55.4,100,30.25,3.0,East,5.8,-,N/A,,Overcast,100,2012-10-13 06:15:00
1:35 AM,55.4,55.4,100,30.25,4.0,SE,4.6,-,N/A,,Overcast,130,2012-10-13 06:35:00
1:55 AM,55.4,55.4,100,30.24,5.0,SE,4.6,-,N/A,,Overcast,130,2012-10-13 06:55:00
2:15 AM,55.4,55.4,100,30.24,7.0,SE,3.5,-,N/A,,Overcast,130,2012-10-13 07:15:00
2:35 AM,55.4,55.4,100,30.23,8.0,ESE,3.5,-,N/A,,Overcast,110,2012-10-13 07:35:00
2:55 AM,55.4,55.4,100,30.22,9.0,ESE,4.6,-,N/A,,Overcast,120,2012-10-13 07:55:00
3:35 AM,55.4,55.4,100,30.22,10.0,SE,4.6,-,N/A,,Overcast,140,2012-10-13 08:35:00
3:55 AM,55.4,55.4,100,30.22,9.0,SE,3.5,-,N/A,,Overcast,140,2012-10-13 08:55:00
4:15 AM,55.4,55.4,100,30.21,10.0,SE,5.8,-,N/A,,Scattered Clouds,130,2012-10-13 09:15:00
4:35 AM,55.4,55.4,100,30.21,8.0,SE,3.5,-,N/A,,Clear,140,2012-10-13 09:35:00
4:55 AM,55.4,55.4,100,30.21,7.0,SSE,3.5,-,N/A,,Scattered Clouds,150,2012-10-13 09:55:00
5:15 AM,55.4,55.4,100,30.20,7.0,SSE,5.8,-,N/A,,Mostly Cloudy,150,2012-10-13 10:15:00
5:35 AM,57.2,55.4,94,30.20,6.0,SSE,6.9,-,N/A,,Overcast,160,2012-10-13 10:35:00
5:55 AM,57.2,57.2,100,30.20,5.0,South,6.9,-,N/A,,Overcast,170,2012-10-13 10:55:00
6:15 AM,57.2,57.2,100,30.20,4.0,South,6.9,-,N/A,,Overcast,180,2012-10-13 11:15:00
6:35 AM,57.2,57.2,100,30.21,2.5,South,8.1,-,N/A,,Overcast,170,2012-10-13 11:35:00
6:55 AM,59.0,59.0,100,30.21,2.0,South,9.2,-,N/A,,Overcast,170,2012-10-13 11:55:00
7:15 AM,59.0,59.0,100,30.22,1.0,South,6.9,-,N/A,,Overcast,180,2012-10-13 12:15:00
7:35 AM,59.0,59.0,100,30.22,0.8,South,8.1,-,N/A,,Overcast,170,2012-10-13 12:35:00
7:55 AM,59.0,59.0,100,30.22,1.0,South,9.2,-,N/A,,Overcast,180,2012-10-13 12:55:00
8:15 AM,59.0,59.0,100,30.21,1.8,South,8.1,17.3,N/A,,Overcast,170,2012-10-13 13:15:00
8:35 AM,60.8,60.8,100,30.21,3.0,South,6.9,-,N/A,,Overcast,180,2012-10-13 13:35:00
8:55 AM,60.8,60.8,100,30.21,4.0,South,9.2,-,N/A,,Overcast,180,2012-10-13 13:55:00
9:35 AM,64.4,62.6,94,30.21,9.0,South,9.2,-,N/A,,Mostly Cloudy,180,2012-10-13 14:35:00
9:55 AM,64.4,62.6,94,30.21,10.0,South,10.4,-,N/A,,Partly Cloudy,180,2012-10-13 14:55:00
10:15 AM,66.2,62.6,88,30.20,10.0,South,13.8,20.7,N/A,,Partly Cloudy,180,2012-10-13 15:15:00
10:35 AM,66.2,62.6,88,30.20,10.0,South,10.4,19.6,N/A,,Partly Cloudy,190,2012-10-13 15:35:00
10:55 AM,69.8,64.4,83,30.19,10.0,South,12.7,19.6,N/A,,Clear,190,2012-10-13 15:55:00
11:15 AM,71.6,64.4,78,30.19,10.0,South,11.5,18.4,N/A,,Clear,190,2012-10-13 16:15:00
11:35 AM,73.4,64.4,73,30.17,10.0,South,11.5,18.4,N/A,,Clear,190,2012-10-13 16:35:00
11:55 AM,75.2,64.4,69,30.16,10.0,South,16.1,19.6,N/A,,Partly Cloudy,190,2012-10-13 16:55:00
12:15 PM,75.2,64.4,69,30.16,10.0,South,12.7,20.7,N/A,,Partly Cloudy,190,2012-10-13 17:15:00
12:35 PM,75.2,64.4,69,30.15,10.0,South,11.5,21.9,N/A,,Mostly Cloudy,180,2012-10-13 17:35:00
1:15 PM,77.0,64.4,65,30.12,10.0,SSW,8.1,19.6,N/A,,Mostly Cloudy,200,2012-10-13 18:15:00
1:35 PM,77.0,64.4,65,30.12,10.0,SSW,12.7,24.2,N/A,,Mostly Cloudy,200,2012-10-13 18:35:00
1:55 PM,77.0,62.6,61,30.11,10.0,SSW,10.4,21.9,N/A,,Mostly Cloudy,210,2012-10-13 18:55:00
2:15 PM,75.2,62.6,65,30.11,10.0,South,12.7,19.6,N/A,,Mostly Cloudy,190,2012-10-13 19:15:00
2:35 PM,77.0,62.6,61,30.10,10.0,South,9.2,-,N/A,,Scattered Clouds,190,2012-10-13 19:35:00
2:55 PM,77.0,62.6,61,30.09,10.0,SSW,12.7,17.3,N/A,,Mostly Cloudy,200,2012-10-13 19:55:00
3:15 PM,78.8,62.6,57,30.08,10.0,SSW,11.5,18.4,N/A,,Scattered Clouds,200,2012-10-13 20:15:00
3:35 PM,77.0,62.6,61,30.08,10.0,South,11.5,20.7,N/A,,Mostly Cloudy,190,2012-10-13 20:35:00
3:55 PM,77.0,59.0,54,30.07,10.0,SSW,10.4,21.9,N/A,,Scattered Clouds,200,2012-10-13 20:55:00
4:15 PM,77.0,59.0,54,30.07,10.0,SSW,10.4,21.9,N/A,,Partly Cloudy,210,2012-10-13 21:15:00
4:35 PM,77.0,59.0,54,30.07,10.0,SSW,9.2,16.1,N/A,,Partly Cloudy,200,2012-10-13 21:35:00
4:55 PM,75.2,59.0,57,30.06,10.0,SSW,6.9,-,N/A,,Partly Cloudy,200,2012-10-13 21:55:00
5:15 PM,77.0,59.0,54,30.06,10.0,South,9.2,-,N/A,,Partly Cloudy,190,2012-10-13 22:15:00
5:35 PM,75.2,59.0,57,30.06,10.0,South,5.8,-,N/A,,Clear,190,2012-10-13 22:35:00
5:55 PM,75.2,59.0,57,30.05,10.0,South,9.2,-,N/A,,Clear,190,2012-10-13 22:55:00
6:15 PM,73.4,59.0,61,30.05,10.0,South,6.9,-,N/A,,Clear,180,2012-10-13 23:15:00
6:35 PM,73.4,59.0,61,30.05,10.0,South,6.9,-,N/A,,Clear,170,2012-10-13 23:35:00
7:15 PM,71.6,60.8,69,30.05,10.0,South,5.8,-,N/A,,Clear,170,2012-10-14 00:15:00
7:35 PM,69.8,60.8,73,30.05,10.0,SSE,5.8,-,N/A,,Clear,160,2012-10-14 00:35:00
7:55 PM,69.8,60.8,73,30.05,10.0,South,9.2,-,N/A,,Clear,170,2012-10-14 00:55:00
8:35 PM,71.6,62.6,73,30.04,10.0,South,11.5,17.3,N/A,,Clear,180,2012-10-14 01:35:00
9:15 PM,71.6,62.6,73,30.04,10.0,South,9.2,16.1,N/A,,Clear,180,2012-10-14 02:15:00
9:35 PM,69.8,62.6,78,30.04,10.0,South,9.2,18.4,N/A,,Scattered Clouds,180,2012-10-14 02:35:00
9:55 PM,71.6,62.6,73,30.04,10.0,South,11.5,19.6,N/A,,Overcast,180,2012-10-14 02:55:00
10:15 PM,69.8,62.6,78,30.03,10.0,South,8.1,20.7,N/A,,Mostly Cloudy,180,2012-10-14 03:15:00
10:55 PM,69.8,62.6,78,30.02,10.0,South,9.2,-,N/A,,Partly Cloudy,190,2012-10-14 03:55:00
11:35 PM,69.8,62.6,78,30.00,10.0,South,11.5,18.4,N/A,,Mostly Cloudy,180,2012-10-14 04:35:00